Flag for Pakistan Weather past 2 weeks in Narowal, Pakistan

Now
73 °F

Fog.


Feels Like: 74 °F
Forecast: 71 / 94 °F
Wind: 2 mph from North

Location: Amritsar Airport

Current Time: Apr 19, 2015 at 1:05:45 AM

Latest Report: Apr 18, 2015 at 11:30 PM


Visibility: 2 mi

Pressure: 29.68 "Hg

Humidity: 78%

Dew point: 66 °F

Location of NarowalLocation

Historic Weather in Narowal — Graph

°F

Narowal temperature yesterday

Maximum temperature yesterday: 93 °F (at 12:00 PM)
Minimum temperature yesterday: 66 °F (at 3:30 AM)
Average temperature yesterday: 80 °F

Past Weeks' High & Low Weather Summary

 TemperatureHumidityPressure
High93 °F (Apr 15, 2:30 PM)100% (Apr 4, 1:30 AM)30.12 "Hg (Apr 4, 1:30 AM)
Low55 °F (Apr 8, 5:30 AM)32% (Apr 18, 4:00 PM)29.62 "Hg (Apr 4, 3:30 PM)
Average74 °F71%29.85 "Hg
* Reported Apr 3 11:00 PM — Apr 18 11:30 PM, Narowal, Weather by CustomWeather, © 2015

Note: Actual official high and low records may vary slightly from our data, if they occured in-between our weather recording intervals... More about our weather records

Advertising

Narowal weather history for previous 24 hours

 ConditionsComfort  
Time TempWeatherWind HumidityBarometerVisibility
11:30 PM
Sat, Apr 18
73 °FFog.2 mph78%29.68 "Hg2 mi
11:00 PM75 °FPassing clouds.No wind74%29.71 "Hg2 mi
10:30 PM75 °FPassing clouds.No wind69%29.71 "Hg2 mi
10:00 PM77 °FPassing clouds.No wind65%29.71 "Hg2 mi
9:30 PM79 °FPassing clouds.No wind61%29.68 "Hg2 mi
9:00 PM81 °FHaze.No wind58%29.68 "Hg2 mi
8:30 PM81 °FHaze.No wind54%29.65 "Hg2 mi
8:00 PM81 °FHaze.No wind58%29.65 "Hg2 mi
7:30 PM81 °FPassing clouds.No wind58%29.62 "Hg2 mi
7:00 PM82 °FScattered clouds.No wind55%29.62 "Hg2 mi
6:30 PM88 °FScattered clouds.6 mph40%29.62 "Hg3 mi
6:00 PM88 °FPassing clouds.6 mph40%29.62 "Hg3 mi
5:30 PM90 °FPassing clouds.6 mph38%29.62 "Hg3 mi
5:00 PM91 °FScattered clouds.8 mph38%29.62 "Hg3 mi
4:30 PM93 °FBroken clouds.9 mph34%29.62 "Hg3 mi
4:00 PM93 °FBroken clouds.8 mph32%29.62 "Hg3 mi
3:30 PM93 °FBroken clouds.9 mph34%29.62 "Hg3 mi
3:00 PM93 °FBroken clouds.12 mph36%29.62 "Hg3 mi
2:30 PM93 °FBroken clouds.9 mph34%29.62 "Hg3 mi
2:00 PM93 °FBroken clouds.10 mph34%29.65 "Hg3 mi
1:30 PM93 °FBroken clouds.9 mph34%29.65 "Hg3 mi
1:00 PM93 °FBroken clouds.8 mph34%29.65 "Hg3 mi
12:30 PM91 °FBroken clouds.10 mph38%29.68 "Hg3 mi
12:00 PM93 °FBroken clouds.10 mph36%29.68 "Hg3 mi
11:30 AM91 °FBroken clouds.8 mph36%29.68 "Hg3 mi
11:00 AM90 °FBroken clouds.7 mph41%29.71 "Hg3 mi
10:30 AM88 °FBroken clouds.5 mph43%29.71 "Hg3 mi
10:00 AM88 °FBroken clouds.5 mph49%29.71 "Hg3 mi
9:30 AM84 °FBroken clouds.No wind55%29.71 "Hg3 mi
9:00 AM84 °FFog.No wind55%29.71 "Hg2 mi
8:30 AM81 °FFog.No wind70%29.68 "Hg2 mi
8:00 AM79 °FFog.No wind74%29.71 "Hg2 mi
7:30 AM75 °FFog.No wind83%29.68 "Hg1 mi
7:00 AM72 °FFog.No wind88%29.68 "Hg1 mi
6:30 AM68 °FFog.No wind94%29.68 "Hg1 mi
6:00 AM66 °FFog.No wind94%29.68 "Hg1 mi
5:30 AM66 °FFog.No wind94%29.68 "Hg1 mi
5:00 AM66 °FFog.No wind94%29.68 "Hg1 mi
4:30 AM66 °FFog.No wind94%29.65 "Hg1 mi
4:00 AM66 °FFog.No wind94%29.65 "Hg1 mi
3:30 AM66 °FFog.No wind94%29.65 "Hg1 mi
3:00 AM68 °FFog.No wind94%29.68 "Hg1 mi
2:30 AM70 °FFog.No wind88%29.68 "Hg1 mi
2:00 AM70 °FFog.No wind88%29.68 "Hg1 mi
1:30 AM70 °FFog.No wind88%29.71 "Hg1 mi
1:00 AM68 °FFog.No wind94%29.71 "Hg2 mi
Weather by CustomWeather, © 2015

See weather overviewHow to use our weather pages